Vertical_Velocity
-0 -1 -1 -1 1 -1 -0 1 -1 -3 -3 -4 -1 -1 -2 -1 0 2 -0 -2 -3 -5 -1 -2 -3 -5 -3 -1 3 7 8 8 1 -1 1 1 4 1 1 2 1 3 2
-2 1 -0 -3 1 2 -0 -0 -3 -4 -3 -3 -3 -2 -2 -1 -1 -1 -1 0 -2 -1 -1 1 4 2 -0 0 3 1 -1 -4 -4 -0 -1 0 -1 -1 -2 -5 -1 0 0
-2 -2 -1 -0 2 1 -0 -1 -2 -3 -4 -2 -1 -0 -0 -1 0 -2 -3 -2 1 1 1 -1 -3 -4 -0 5 5 3 2 1 -0 -2 -5 -2 -2 -1 -2 1 -0 1 -1
-2 -1 -1 1 1 1 -1 -1 -1 -3 -4 -2 -2 -1 -1 -1 -2 -2 -2 -1 -1 -1 -1 -1 -0 1 1 -2 -2 -2 -0 3 5 5 2 -0 -0 -1 -3 -4 -5 -3 -2
-2 -2 -1 1 1 0 -0 -1 -2 -2 -1 -0 -1 1 0 1 1 -0 0 1 2 2 1 1 -0 1 1 -1 -0 0 -1 -2 -3 -1 1 2 0 -3 -4 -3 -3 -3 -2
-2 -2 0 1 1 2 0 -1 -1 0 0 0 -1 0 1 -1 -1 -2 -2 -1 -1 -0 0 1 -1 -1 -1 -1 -2 -0 -0 -2 -3 -4 -4 -2 -2 0 1 1 0 -1 -5
-2 1 1 1 1 1 0 -0 -0 -1 -1 0 -0 -1 -0 0 1 1 0 -0 -1 -1 -1 -1 -2 -2 -2 -2 -1 -0 -2 -4 -0 2 1 -0 -2 -4 -3 0 -1 -3 -2
-0 -1 1 1 1 2 1 0 0 -1 -0 -0 -0 -1 -2 -2 -3 -2 -2 -2 -1 -1 -2 -1 -1 -1 -1 -1 -1 -1 -1 -1 0 -1 -2 -1 -1 -0 -4 -3 -3 -3 -4
0 2 3 2 1 2 0 1 0 -2 -1 0 0 1 -1 1 -0 1 1 0 0 -0 -0 1 0 1 2 1 0 -1 -0 1 -0 -2 -2 -2 -0 2 -0 -1 -2 -1 1
2 2 2 1 -1 -1 0 -1 1 -1 -1 -0 0 1 0 0 2 1 1 -0 -0 0 0 -0 2 -0 -1 -1 -1 -0 -0 -0 -0 -1 -3 -4 -5 -6 -3 -2 -1 -1 -0
1 -0 -1 -1 -2 -1 1 1 1 -0 -2 -1 -3 2 -1 1 1 -1 1 0 1 1 1 -1 -1 -0 -0 -0 -0 -0 -0 -1 -1 0 1 -1 -2 -2 -1 -0 -1 -1 -1
1 -1 -1 0 1 1 1 2 2 1 -0 -1 2 -1 3 3 1 3 1 1 1 -2 -0 -1 -0 1 0 -0 -1 -1 0 1 0 -2 -1 0 -0 -0 -1 -3 -2 -2 -0
-1 -2 -1 1 0 2 1 -0 -0 3 0 -2 1 0 -2 6 0 1 0 1 1 -3 -0 0 -0 -0 0 0 1 0 -1 -0 -0 0 1 -1 -1 -1 2 1 -0 -0 -1
-1 0 1 -2 -3 1 2 2 2 2 1 1 -0 -2 -1 -0 -1 3 1 1 0 -1 2 0 1 1 1 1 -1 0 1 -0 -1 -1 -1 -1 0 -0 1 2 -0 -1 0
-0 0 0 0 0 -1 -2 -0 -1 -0 1 1 -1 0 -2 -3 0 5 1 0 3 2 2 -1 -0 1 2 2 1 1 -0 1 1 1 0 0 -0 0 -0 0 1 -1 0
-3 1 2 0 1 0 -0 -2 2 -1 0 1 3 1 1 -0 1 1 2 0 2 4 -2 -1 -0 0 -2 2 0 3 1 -1 -0 0 -0 -1 -0 0 1 -0 -0 1 0
-1 -2 -2 -0 0 1 2 2 -3 5 1 -3 -2 2 1 -0 -1 3 1 -0 3 5 -6 -1 -0 0 1 2 1 0 -0 1 1 0 1 2 -0 0 -1 -0 0 -1 -0
1 2 -1 -1 -2 -2 -1 1 3 1 -6 -3 7 1 -1 -1 2 2 3 2 -2 1 -2 -1 0 1 2 1 1 -1 -0 1 -2 -1 -0 0 0 2 -2 -0 1 1 1
1 -0 -1 2 2 -1 -4 -4 -1 -0 -2 -1 -2 3 1 -1 -0 -0 2 -2 1 0 2 0 2 1 1 4 4 1 1 -1 1 1 1 1 2 1 -0 0 0 -2 -0
2 2 2 -0 1 1 0 -1 -0 0 -2 -2 -3 -1 0 -5 -1 2 3 -0 0 -0 2 -1 -0 -0 0 2 5 3 1 -0 1 -1 1 2 2 -2 1 -0 -1 -1 1
2 2 1 0 1 1 -2 -1 -2 -2 -2 -2 -2 1 1 -3 -2 -2 1 3 3 1 1 -1 -0 1 1 2 2 2 1 2 -1 2 2 0 0 0 2 1 -2 -0 0
-0 -0 0 1 1 -0 -1 1 -1 -1 -2 -3 -2 -2 1 -1 -2 -0 0 -0 2 0 3 3 0 0 2 0 1 2 2 1 2 1 1 1 2 2 0 1 -1 -1 -1
-0 0 0 -0 1 1 0 3 1 1 0 2 -1 -5 -0 1 -2 -3 -2 -0 -0 -1 0 2 2 1 1 1 2 2 3 1 4 2 2 2 -1 1 -0 0 0 -0 -1
2 -1 -3 -2 1 1 0 -1 1 2 -1 -2 -0 0 -1 -1 -1 -2 -1 -1 0 0 -1 0 2 1 -0 -0 0 2 1 2 3 3 0 1 -1 1 -1 -1 2 -0 -1
3 1 -0 0 0 3 1 0 -1 1 3 2 -1 -2 -1 0 -0 -1 1 -1 1 1 -0 0 1 0 1 2 0 0 2 1 3 3 2 -1 -1 2 1 0 1 -0 -1
0 2 1 1 1 1 -1 -1 1 -0 -0 2 1 -1 -1 -1 1 0 -0 -1 -1 1 1 2 2 2 1 0 1 3 0 2 3 2 -1 -2 0 -1 -0 1 1 -2 -1
Height
1501 1500 1498 1497 1495 1493 1492 1490 1489 1486 1484 1483 1481 1479 1477 1475 1473 1471 1470 1469 1467 1465 1464 1462 1460 1459 1457 1457 1457 1457 1457 1457 1456 1456 1456 1457 1457 1456 1456 1456 1456 1455 1454
1499 1497 1496 1494 1492 1491 1489 1487 1485 1483 1481 1479 1477 1476 1474 1472 1470 1468 1467 1466 1464 1463 1461 1460 1458 1457 1456 1456 1455 1455 1455 1456 1455 1454 1453 1453 1452 1451 1451 1451 1451 1450 1448
1495 1494 1492 1491 1490 1488 1487 1484 1482 1480 1478 1477 1475 1472 1470 1468 1466 1465 1463 1462 1461 1460 1458 1457 1456 1455 1454 1453 1453 1452 1452 1452 1451 1450 1449 1448 1447 1447 1446 1446 1445 1445 1442
1491 1490 1489 1488 1487 1485 1484 1482 1480 1478 1477 1475 1473 1470 1468 1466 1464 1462 1460 1459 1458 1456 1455 1453 1452 1451 1450 1449 1449 1448 1447 1446 1446 1445 1444 1443 1443 1442 1441 1440 1440 1439 1437
1487 1486 1485 1484 1483 1482 1480 1479 1477 1476 1474 1473 1471 1469 1467 1465 1463 1460 1458 1457 1455 1454 1452 1451 1449 1448 1446 1445 1444 1443 1442 1442 1442 1442 1442 1441 1440 1439 1439 1437 1436 1435 1433
1481 1481 1481 1480 1479 1478 1477 1475 1474 1473 1471 1470 1468 1466 1465 1463 1462 1459 1457 1454 1453 1451 1450 1449 1446 1445 1444 1442 1441 1440 1440 1439 1439 1439 1438 1438 1437 1436 1435 1433 1431 1430 1429
1476 1477 1476 1476 1475 1474 1472 1471 1470 1469 1468 1467 1465 1464 1462 1460 1459 1457 1454 1452 1450 1449 1447 1446 1444 1442 1440 1439 1438 1438 1437 1436 1436 1435 1434 1434 1432 1432 1431 1430 1429 1428 1426
1472 1472 1472 1471 1470 1469 1468 1467 1466 1464 1463 1462 1461 1459 1458 1456 1455 1453 1452 1449 1447 1446 1444 1442 1440 1439 1438 1437 1435 1434 1433 1432 1432 1431 1431 1430 1429 1428 1427 1426 1425 1424 1423
1467 1467 1467 1466 1465 1464 1463 1462 1461 1459 1458 1457 1456 1455 1453 1452 1450 1448 1447 1445 1443 1441 1439 1438 1436 1436 1435 1433 1432 1431 1430 1430 1428 1428 1427 1426 1425 1425 1424 1423 1421 1420 1418
1463 1462 1462 1461 1460 1458 1458 1457 1456 1454 1452 1451 1451 1450 1448 1447 1446 1444 1442 1440 1439 1437 1436 1434 1433 1432 1431 1430 1429 1428 1426 1425 1425 1424 1423 1422 1422 1421 1420 1419 1418 1416 1415
1456 1455 1455 1454 1453 1452 1451 1450 1449 1447 1446 1445 1444 1444 1442 1441 1441 1439 1437 1436 1434 1433 1432 1430 1430 1429 1427 1426 1426 1425 1424 1423 1421 1421 1419 1418 1418 1417 1416 1415 1413 1412 1411
1449 1448 1448 1447 1445 1445 1443 1443 1441 1440 1439 1438 1436 1436 1436 1436 1434 1433 1432 1431 1429 1428 1427 1426 1425 1424 1423 1422 1422 1421 1420 1419 1418 1417 1416 1415 1414 1413 1412 1411 1410 1408 1407
1442 1440 1439 1438 1437 1436 1434 1434 1434 1433 1431 1430 1430 1428 1428 1429 1428 1428 1426 1425 1424 1422 1421 1420 1420 1419 1419 1418 1417 1416 1416 1416 1415 1414 1413 1412 1411 1411 1409 1407 1406 1406 1404
1433 1431 1430 1429 1429 1428 1427 1426 1426 1425 1424 1423 1423 1422 1421 1421 1421 1421 1420 1419 1417 1417 1416 1415 1414 1413 1413 1412 1412 1412 1411 1410 1410 1410 1409 1408 1407 1406 1405 1404 1403 1402 1401
1426 1424 1422 1421 1420 1419 1419 1418 1418 1417 1418 1416 1415 1415 1413 1412 1413 1413 1412 1411 1411 1410 1409 1408 1407 1407 1407 1407 1406 1406 1406 1405 1406 1406 1406 1405 1404 1403 1402 1401 1399 1398 1398
1420 1419 1416 1414 1413 1412 1411 1411 1411 1410 1409 1409 1408 1407 1406 1405 1405 1404 1404 1404 1403 1404 1401 1400 1400 1400 1400 1401 1401 1401 1401 1401 1402 1401 1401 1400 1399 1398 1398 1397 1397 1395 1394
1415 1414 1413 1411 1409 1408 1407 1405 1403 1404 1403 1403 1402 1401 1400 1398 1397 1396 1395 1395 1394 1394 1390 1390 1391 1392 1392 1393 1393 1394 1394 1395 1396 1396 1395 1395 1394 1394 1392 1393 1391 1391 1390
1412 1410 1408 1407 1405 1404 1403 1402 1400 1398 1396 1395 1396 1394 1392 1391 1389 1388 1387 1386 1384 1383 1381 1380 1380 1382 1383 1383 1384 1384 1385 1386 1386 1388 1388 1388 1388 1387 1387 1388 1388 1388 1387
1407 1406 1405 1404 1401 1400 1399 1398 1397 1394 1392 1389 1387 1387 1386 1383 1381 1380 1379 1376 1375 1373 1373 1373 1373 1374 1375 1375 1376 1376 1376 1377 1378 1379 1380 1381 1381 1381 1381 1382 1382 1383 1383
1405 1403 1402 1400 1399 1397 1395 1393 1392 1389 1386 1383 1381 1378 1376 1375 1372 1371 1370 1368 1366 1365 1364 1363 1364 1365 1365 1366 1367 1367 1367 1369 1370 1372 1375 1376 1375 1376 1376 1376 1377 1378 1378
1403 1402 1400 1398 1396 1393 1391 1389 1386 1384 1381 1377 1374 1372 1369 1365 1362 1360 1359 1359 1358 1357 1356 1356 1356 1356 1356 1357 1358 1359 1359 1360 1361 1364 1365 1367 1370 1370 1371 1370 1371 1373 1373
1401 1399 1397 1394 1391 1389 1386 1383 1380 1377 1374 1371 1367 1364 1361 1357 1354 1352 1349 1348 1348 1348 1348 1347 1347 1347 1347 1348 1349 1350 1351 1352 1353 1356 1358 1362 1363 1364 1366 1366 1366 1367 1369
1395 1392 1390 1388 1385 1381 1379 1376 1373 1370 1367 1363 1360 1357 1355 1350 1347 1345 1343 1340 1338 1337 1338 1339 1339 1338 1339 1339 1340 1341 1343 1344 1345 1348 1351 1353 1356 1359 1360 1361 1362 1363 1364
1387 1384 1381 1379 1376 1373 1370 1368 1366 1363 1359 1356 1353 1350 1347 1344 1341 1339 1336 1334 1332 1331 1331 1331 1331 1330 1331 1331 1333 1334 1336 1338 1339 1341 1344 1348 1351 1353 1355 1357 1358 1359 1361
1377 1374 1371 1369 1366 1363 1360 1359 1357 1355 1351 1347 1344 1341 1340 1337 1335 1332 1330 1328 1327 1325 1324 1323 1323 1324 1325 1324 1325 1327 1328 1332 1334 1336 1339 1342 1345 1348 1350 1352 1354 1355 1357
1367 1364 1361 1359 1357 1354 1352 1351 1349 1346 1343 1340 1337 1334 1332 1330 1328 1326 1323 1321 1320 1319 1317 1317 1317 1316 1317 1318 1319 1321 1324 1326 1329 1332 1335 1338 1341 1343 1346 1348 1350 1352 1354